Flag for Romania Weather past 2 weeks in Târgu Mureş, Romania

Now
34 °F

Fog.


Feels Like: 34 °F
Forecast: 29 / 39 °F
Wind: No wind

Location: Tirgu Mures Airport

Current Time: Jan 26, 2015 at 10:56:31 PM

Latest Report: Jan 26, 2015 at 10:00 PM


Visibility: 2 mi

Pressure: 30.12 "Hg

Humidity: 100%

Dew point: 34 °F

Location of Târgu MureşLocation

Historic Weather in Târgu Mureş — Graph

°F

Târgu Mureş temperature yesterday

Maximum temperature yesterday: 45 °F (at 2:00 PM)
Minimum temperature yesterday: 36 °F (at 7:30 AM)
Average temperature yesterday: 40 °F

Past Weeks' High & Low Weather Summary

 TemperatureHumidityPressure
High54 °F (Jan 21, 3:30 PM)100% (Jan 13, 12:00 AM)30.33 "Hg (Jan 13, 12:00 AM)
Low19 °F (Jan 14, 7:30 AM)47% (Jan 24, 1:30 PM)29.71 "Hg (Jan 24, 1:00 PM)
Average35 °F92%30.05 "Hg
* Reported Jan 11 9:00 PM — Jan 26 9:00 PM, Târgu Mureş, Weather by CustomWeather, © 2014

Note: Actual official high and low records may vary slightly from our data, if they occured in-between our weather recording intervals... More about our weather records

Advertising

Târgu Mureş weather history for previous 24 hours

 ConditionsComfort  
Time TempWeatherWind HumidityBarometerVisibility
9:00 PM
Jan 26
36 °FFog.No wind100%30.15 "Hg3 mi
7:00 PM34 °FFog.3 mph100%30.12 "Hg3 mi
6:30 PM37 °FPartly cloudy.2 mph93%30.12 "Hg4 mi
6:00 PM37 °FMostly cloudy.3 mph93%30.12 "Hg5 mi
5:30 PM39 °FLight rain. Partly cloudy.1 mph87%30.12 "HgN/A
5:00 PM39 °FBroken clouds.2 mph87%30.12 "HgN/A
4:30 PM39 °FMostly cloudy.3 mph87%30.12 "HgN/A
4:00 PM39 °FMore clouds than sun.3 mph87%30.12 "HgN/A
3:30 PM39 °FBroken clouds.3 mph87%30.12 "HgN/A
3:00 PM39 °FBroken clouds.3 mph87%30.12 "HgN/A
2:30 PM39 °FPartly sunny.5 mph87%30.12 "HgN/A
2:00 PM39 °FBroken clouds.5 mph87%30.12 "HgN/A
1:30 PM39 °FPartly sunny.5 mph87%30.12 "HgN/A
1:00 PM39 °FPartly sunny.5 mph87%30.12 "HgN/A
12:30 PM39 °FPartly sunny.5 mph87%30.12 "HgN/A
12:00 PM39 °FPartly sunny.3 mph87%30.15 "HgN/A
11:30 AM39 °FBroken clouds.3 mph87%30.15 "HgN/A
11:00 AM39 °FBroken clouds.5 mph87%30.15 "HgN/A
10:30 AM37 °FBroken clouds.6 mph93%30.15 "HgN/A
10:00 AM37 °FBroken clouds.6 mph93%30.15 "HgN/A
9:30 AM37 °FPartly sunny.3 mph93%30.12 "HgN/A
9:00 AM37 °FBroken clouds.3 mph93%30.12 "HgN/A
8:30 AM37 °FBroken clouds.5 mph93%30.12 "HgN/A
8:00 AM37 °FBroken clouds.5 mph93%30.12 "HgN/A
7:30 AM37 °FLight rain. Partly cloudy.5 mph93%30.09 "Hg6 mi
7:00 AM37 °FLight rain. Partly cloudy.6 mph93%30.09 "HgN/A
6:30 AM37 °FLight rain. Partly cloudy.6 mph93%30.09 "Hg5 mi
6:00 AM37 °FLight rain. Partly cloudy.7 mph93%30.07 "Hg4 mi
5:30 AM37 °FLight rain. Partly cloudy.6 mph100%30.07 "Hg4 mi
5:00 AM37 °FLight rain. Partly cloudy.5 mph100%30.07 "Hg4 mi
4:00 AM39 °FLight rain. Partly cloudy.6 mph93%30.07 "Hg5 mi
3:00 AM39 °FLight rain. Partly cloudy.6 mph93%30.04 "Hg4 mi
2:00 AM39 °FLight rain. Partly cloudy.5 mph93%30.04 "Hg4 mi
1:00 AM39 °FLight rain. Passing clouds.3 mph100%30.04 "Hg5 mi
12:00 AM39 °FLight rain. Passing clouds.2 mph93%30.04 "Hg6 mi
11:00 PM
Jan 25
39 °FLight rain. Partly cloudy.3 mph93%30.01 "Hg6 mi
10:00 PM39 °FLight rain. Passing clouds.3 mph93%30.01 "HgN/A
Weather by CustomWeather, © 2014

See weather overviewHow to use our weather pages